Regional Weather Roundup
Issued by NWS Sterling, VA

Current Version | Previous Version | Text Only | Print | Product List | Glossary On
Versions: 1 2 3 4 5 6 7 8 9 10 11 12 13 14 15 16 17 18 19 20 21 22 23 24 25 26 27 28 29 30 31 32 33 34 35 36 37 38 39 40 41 42 43 44 45 46 47 48 49 50
237 ASUS41 KLWX 220911 RWRLWX REGIONAL WEATHER ROUNDUP NATIONAL WEATHER SERVICE BALTIMORE MD/WASHINGTON DC 500 AM EDT THU AUG 22 2019 Note: "FAIR" indicates few or no clouds below 12,000 feet with no significant weather and/or obstructions to visibility. TC=TEMPERATURE CELSIUS * =Non NWS site. Station does not report precipitation (e.g. rain, snow, etc.), thunder, or fog. DCZ001-MDZ009-015-VAZ040>042-051-053>054-221000- WASHINGTON METRO CITY SKY/WX TMP DP RH WIND PRES REMARKS WASHINGTON NAT FAIR 77 70 79 SW3 29.90F DULLES FAIR 71 68 90 CALM 29.91S ANDREWS AFB FAIR 71 70 97 S3 29.89F QUANTICO FAIR 74 72 93 CALM 29.91S COLLEGE PARK* FAIR N/A N/A N/A CALM 29.89S LEESBURG* FAIR 68 68 100 W5 29.93R MANASSAS* FAIR 70 70 100 SW3 29.93R GAITHERSBURG* FAIR 69 69 100 CALM 29.92S FOG $$ MDZ006>007-011-014-221000- BALTIMORE METRO CITY SKY/WX TMP DP RH WIND PRES REMARKS BWI AIRPORT MOCLDY 73 71 93 W5 29.88F MD SCIENCE CTR N/A 78 68 71 MISG 29.88S MARTIN STATE FAIR 75 72 88 CALM 29.89S ANNAPOLIS FAIR 78 71 79 W5 29.88S FORT MEADE* FAIR 68 68 100 CALM 29.91F $$ MDZ012-015-019>023-221000- MARYLAND EASTERN SHORE CITY SKY/WX TMP DP RH WIND PRES REMARKS OCEAN CITY FAIR 71 71 100 CALM 29.89S SALISBURY FAIR 73 71 93 CALM 29.88F FOG BAY BRIDGE AP* FAIR 79 72 78 W8 29.88S CAMBRIDGE* CLEAR 73 73 100 CALM 29.89S FOG EASTON* FAIR 75 74 96 CALM 29.92S $$ MDZ017>025-221000- SOUTHERN MARYLAND CITY SKY/WX TMP DP RH WIND PRES REMARKS PATUXENT RIVER FAIR 76 71 85 W7 29.88F ST INIGOES FAIR 79 71 76 SW8 29.88F LEONARDTOWN* FAIR 72 72 100 W5 29.91S $$ MDZ003>005-221000- NORTH CENTRAL MARYLAND CITY SKY/WX TMP DP RH WIND PRES REMARKS FREDERICK* FAIR 72 70 94 CALM 29.94R HAGERSTOWN APT FAIR 73 66 78 SW5 29.93R $$ MDZ501>502-221000- WESTERN MARYLAND CITY SKY/WX TMP DP RH WIND PRES REMARKS OAKLAND* FAIR 63 63 100 W6 30.05S CUMBERLAND* FAIR 67 66 98 CALM 30.00R FOG $$ VAZ025>031-221000- SHENANDOAH VALLEY CITY SKY/WX TMP DP RH WIND PRES REMARKS WINCHESTER* FAIR 70 64 83 W6 29.93R FRONT ROYAL* FAIR 70 70 100 S6 29.94R LURAY* FAIR 68 68 100 CALM 29.96S FOG NEW MARKET* FAIR 65 64 96 CALM 29.96S STAUNTON* FAIR 65 63 96 CALM 30.00S WAYNESBORO* FAIR 67 65 94 SW3 29.99F $$ WVZ021-048>050-054>055-221000- EASTERN WEST VIRGINIA PANHANDLE CITY SKY/WX TMP DP RH WIND PRES REMARKS MARTINSBURG FAIR N/A N/A N/A SW3 29.92R PETERSBURG* FAIR 65 64 99 CALM 29.98R FOG $$ VAZ036>039-050-221000- CENTRAL FOOTHILLS CITY SKY/WX TMP DP RH WIND PRES REMARKS CHARLOTTESVILL FAIR 74 67 78 CALM 29.94S CULPEPER* FAIR 70 69 95 CALM 29.94R ORANGE* FAIR 68 68 100 CALM 29.94R GORDONSVILLE* FAIR 69 69 100 CALM 29.94R WARRENTON* FAIR 71 68 91 CALM 29.93R FOG $$ VAZ055>057-221000- NORTH AND CENTRAL PIEDMONT CITY SKY/WX TMP DP RH WIND PRES REMARKS FREDERICKSBRG* FAIR 71 71 100 CALM 29.91S STAFFORD* NOT AVBL $$ NCZ024-NYZ072-PAZ021-071-VAZ022-071-221000- OTHER REGIONAL OBSERVATIONS CITY SKY/WX TMP DP RH WIND PRES REMARKS NEW YORK CITY FAIR 76 70 82 VRB7 29.85S PHILADELPHIA MOCLDY 76 71 85 SW8 29.86R PITTSBURGH FAIR 68 65 90 CALM 29.95S ROANOKE FAIR 73 67 81 NW7 30.01S RICHMOND FAIR 75 67 76 W9 29.93S RALEIGH FAIR 73 71 93 SW8 29.99S $$ ANZ530>537-221000- MARINE OBSERVATIONS STATION/POSITION TIME TEMP WIND PRES AIR SEA DIR/SP/G (UTC) (F) (DEG/KT/KT) (MB) THOMAS PT LIGHT 0900 78 82 240/ 8/ 8 1012.8F BALT KEY BRIDGE 0824 76 260/ 8/ 9 1011.7 COVE POINT 0824 77 270/ 11/ 15 1012.5 LEWISETTA 0818 77 83 270/ 10/ 12 1012.5 SOLOMONS ISLAND 0824 77 83 280/ 4/ 7 1011.7 PINEY POINT 0830 280/ 10/ 12 N/A $$

USA.gov is the U.S. government's official web portal to all federal, state and local government web resources and services.